Year,Month,Day,Hour,Minute,Value (Times are PST for temperature in C)
2014,07,13,00,00,17.60
2014,07,13,00,01,17.60
2014,07,13,00,02,17.60
2014,07,13,00,03,17.60
2014,07,13,00,04,17.60
2014,07,13,00,05,17.50
2014,07,13,00,06,17.50
2014,07,13,00,07,17.40
2014,07,13,00,08,17.40
2014,07,13,00,09,17.40
2014,07,13,00,10,17.40
2014,07,13,00,11,17.30
2014,07,13,00,12,17.30
2014,07,13,00,13,17.30
2014,07,13,00,14,17.30
2014,07,13,00,15,17.30
2014,07,13,00,16,17.20
2014,07,13,00,17,17.20
2014,07,13,00,18,17.20
2014,07,13,00,19,17.20
2014,07,13,00,20,17.20
2014,07,13,00,21,17.20
2014,07,13,00,22,17.20
2014,07,13,00,23,17.10
2014,07,13,00,24,17.10
2014,07,13,00,25,17.10
2014,07,13,00,26,17.10
2014,07,13,00,27,17.00
2014,07,13,00,28,17.00
2014,07,13,00,29,16.90
2014,07,13,00,30,16.90
2014,07,13,00,31,16.90
2014,07,13,00,32,16.90
2014,07,13,00,33,16.90
2014,07,13,00,34,16.80
2014,07,13,00,35,16.80
2014,07,13,00,36,16.80
2014,07,13,00,37,16.80
2014,07,13,00,38,16.70
2014,07,13,00,39,16.70
2014,07,13,00,40,16.70
2014,07,13,00,41,16.60
2014,07,13,00,42,16.60
2014,07,13,00,43,16.60
2014,07,13,00,44,16.50
2014,07,13,00,45,16.50
2014,07,13,00,46,16.40
2014,07,13,00,47,16.40
2014,07,13,00,48,16.40
2014,07,13,00,49,16.30
2014,07,13,00,50,16.30
2014,07,13,00,51,16.30
2014,07,13,00,52,16.20
2014,07,13,00,53,16.20
2014,07,13,00,54,16.10
2014,07,13,00,55,16.10
2014,07,13,00,56,16.10
2014,07,13,00,57,16.00
2014,07,13,00,58,16.00
2014,07,13,00,59,15.90
2014,07,13,01,00,15.90
2014,07,13,01,01,15.90
2014,07,13,01,02,15.80
2014,07,13,01,03,15.80
2014,07,13,01,04,15.80
2014,07,13,01,05,15.80
2014,07,13,01,06,15.80
2014,07,13,01,07,15.80
2014,07,13,01,08,15.80
2014,07,13,01,09,15.80
2014,07,13,01,10,15.80
2014,07,13,01,11,15.80
2014,07,13,01,12,15.80
2014,07,13,01,13,15.80
2014,07,13,01,14,15.80
2014,07,13,01,15,15.80
2014,07,13,01,16,15.80
2014,07,13,01,17,15.80
2014,07,13,01,18,15.80
2014,07,13,01,19,15.80
2014,07,13,01,20,15.80
2014,07,13,01,21,15.70
2014,07,13,01,22,15.70
2014,07,13,01,23,15.70
2014,07,13,01,24,15.70
2014,07,13,01,25,15.70
2014,07,13,01,26,15.70
2014,07,13,01,27,15.60
2014,07,13,01,28,15.60
2014,07,13,01,29,15.60
2014,07,13,01,30,15.60
2014,07,13,01,31,15.60
2014,07,13,01,32,15.60
2014,07,13,01,33,15.50
2014,07,13,01,34,15.50
2014,07,13,01,35,15.50
2014,07,13,01,36,15.50
2014,07,13,01,37,15.50
2014,07,13,01,38,15.50
2014,07,13,01,39,15.40
2014,07,13,01,40,15.40
2014,07,13,01,41,15.40
2014,07,13,01,42,15.40
2014,07,13,01,43,15.40
2014,07,13,01,44,15.30
2014,07,13,01,45,15.30
2014,07,13,01,46,15.30
2014,07,13,01,47,15.30
2014,07,13,01,48,15.30
2014,07,13,01,49,15.20
2014,07,13,01,50,15.20
2014,07,13,01,51,15.20
2014,07,13,01,52,15.20
2014,07,13,01,53,15.20
2014,07,13,01,54,15.10
2014,07,13,01,55,15.10
2014,07,13,01,56,15.10
2014,07,13,01,57,15.10
2014,07,13,01,58,15.10
2014,07,13,01,59,15.20
2014,07,13,02,00,15.20
2014,07,13,02,01,15.20
2014,07,13,02,02,15.20
2014,07,13,02,03,15.20
2014,07,13,02,04,15.10
2014,07,13,02,05,15.10
2014,07,13,02,06,15.10
2014,07,13,02,07,15.10
2014,07,13,02,08,15.10
2014,07,13,02,09,15.10
2014,07,13,02,10,15.10
2014,07,13,02,11,15.00
2014,07,13,02,12,15.10
2014,07,13,02,13,15.10
2014,07,13,02,14,15.10
2014,07,13,02,15,15.10
2014,07,13,02,16,15.10
2014,07,13,02,17,15.10
2014,07,13,02,18,15.10
2014,07,13,02,19,15.10
2014,07,13,02,20,15.10
2014,07,13,02,21,15.10
2014,07,13,02,22,15.10
2014,07,13,02,23,15.10
2014,07,13,02,24,15.10
2014,07,13,02,25,15.10
2014,07,13,02,26,15.00
2014,07,13,02,27,15.10
2014,07,13,02,28,15.00
2014,07,13,02,29,15.10
2014,07,13,02,30,15.10
2014,07,13,02,31,15.10
2014,07,13,02,32,15.00
2014,07,13,02,33,15.00
2014,07,13,02,34,15.00
2014,07,13,02,35,15.10
2014,07,13,02,36,15.10
2014,07,13,02,37,15.10
2014,07,13,02,38,15.00
2014,07,13,02,39,15.00
2014,07,13,02,40,14.90
2014,07,13,02,41,14.90
2014,07,13,02,42,14.90
2014,07,13,02,43,14.90
2014,07,13,02,44,14.80
2014,07,13,02,45,14.80
2014,07,13,02,46,14.80
2014,07,13,02,47,14.70
2014,07,13,02,48,14.70
2014,07,13,02,49,14.80
2014,07,13,02,50,14.80
2014,07,13,02,51,14.80
2014,07,13,02,52,14.80
2014,07,13,02,53,14.80
2014,07,13,02,54,14.80
2014,07,13,02,55,14.80
2014,07,13,02,56,14.90
2014,07,13,02,57,14.90
2014,07,13,02,58,14.90
2014,07,13,02,59,14.90
2014,07,13,03,00,14.90
2014,07,13,03,01,14.90
2014,07,13,03,02,14.90
2014,07,13,03,03,14.90
2014,07,13,03,04,14.90
2014,07,13,03,05,14.90
2014,07,13,03,06,14.90
2014,07,13,03,07,14.80
2014,07,13,03,08,14.80
2014,07,13,03,09,14.80
2014,07,13,03,10,14.80
2014,07,13,03,11,14.70
2014,07,13,03,12,14.70
2014,07,13,03,13,14.60
2014,07,13,03,14,14.50
2014,07,13,03,15,14.50
2014,07,13,03,16,14.40
2014,07,13,03,17,14.40
2014,07,13,03,18,14.30
2014,07,13,03,19,14.30
2014,07,13,03,20,14.20
2014,07,13,03,21,14.20
2014,07,13,03,22,14.10
2014,07,13,03,23,14.10
2014,07,13,03,24,14.10
2014,07,13,03,25,14.00
2014,07,13,03,26,14.00
2014,07,13,03,27,14.00
2014,07,13,03,28,13.90
2014,07,13,03,29,13.90
2014,07,13,03,30,13.80
2014,07,13,03,31,13.80
2014,07,13,03,32,13.80
2014,07,13,03,33,13.80
2014,07,13,03,34,13.80
2014,07,13,03,35,13.80
2014,07,13,03,36,13.70
2014,07,13,03,37,13.70
2014,07,13,03,38,13.70
2014,07,13,03,39,13.70
2014,07,13,03,40,13.70
2014,07,13,03,41,13.70
2014,07,13,03,42,13.70
2014,07,13,03,43,13.70
2014,07,13,03,44,13.70
2014,07,13,03,45,13.60
2014,07,13,03,46,13.60
2014,07,13,03,47,13.60
2014,07,13,03,48,13.60
2014,07,13,03,49,13.60
2014,07,13,03,50,13.60
2014,07,13,03,51,13.60
2014,07,13,03,52,13.60
2014,07,13,03,53,13.60
2014,07,13,03,54,13.60
2014,07,13,03,55,13.60
2014,07,13,03,56,13.60
2014,07,13,03,57,13.60
2014,07,13,03,58,13.60
2014,07,13,03,59,13.60
2014,07,13,04,00,13.60
2014,07,13,04,01,13.60
2014,07,13,04,02,13.60
2014,07,13,04,03,13.60
2014,07,13,04,04,13.60
2014,07,13,04,05,13.60
2014,07,13,04,06,13.60
2014,07,13,04,07,13.60
2014,07,13,04,08,13.60
2014,07,13,04,09,13.60
2014,07,13,04,10,13.60
2014,07,13,04,11,13.60
2014,07,13,04,12,13.50
2014,07,13,04,13,13.50
2014,07,13,04,14,13.40
2014,07,13,04,15,13.40
2014,07,13,04,16,13.40
2014,07,13,04,17,13.30
2014,07,13,04,18,13.30
2014,07,13,04,19,13.20
2014,07,13,04,20,13.20
2014,07,13,04,21,13.20
2014,07,13,04,22,13.20
2014,07,13,04,23,13.20
2014,07,13,04,24,13.20
2014,07,13,04,25,13.20
2014,07,13,04,26,13.20
2014,07,13,04,27,13.20
2014,07,13,04,28,13.20
2014,07,13,04,29,13.20
2014,07,13,04,30,13.20
2014,07,13,04,31,13.20
2014,07,13,04,32,13.20
2014,07,13,04,33,13.20
2014,07,13,04,34,13.20
2014,07,13,04,35,13.20
2014,07,13,04,36,13.20
2014,07,13,04,37,13.20
2014,07,13,04,38,13.20
2014,07,13,04,39,13.20
2014,07,13,04,40,13.20
2014,07,13,04,41,13.20
2014,07,13,04,42,13.20
2014,07,13,04,43,13.20
2014,07,13,04,44,13.20
2014,07,13,04,45,13.20
2014,07,13,04,46,13.10
2014,07,13,04,47,13.10
2014,07,13,04,48,13.10
2014,07,13,04,49,13.10
2014,07,13,04,50,13.10
2014,07,13,04,51,13.10
2014,07,13,04,52,13.00
2014,07,13,04,53,13.00
2014,07,13,04,54,13.00
2014,07,13,04,55,12.90
2014,07,13,04,56,12.90
2014,07,13,04,57,12.90
2014,07,13,04,58,12.90
2014,07,13,04,59,12.90
2014,07,13,05,00,12.90
2014,07,13,05,01,12.90
2014,07,13,05,02,12.90
2014,07,13,05,03,12.80
2014,07,13,05,04,12.80
2014,07,13,05,05,12.80
2014,07,13,05,06,12.80
2014,07,13,05,07,12.80
2014,07,13,05,08,12.80
2014,07,13,05,09,12.80
2014,07,13,05,10,12.80
2014,07,13,05,11,12.80
2014,07,13,05,12,12.80
2014,07,13,05,13,12.70
2014,07,13,05,14,12.70
2014,07,13,05,15,12.70
2014,07,13,05,16,12.70
2014,07,13,05,17,12.70
2014,07,13,05,18,12.70
2014,07,13,05,19,12.70
2014,07,13,05,20,12.80
2014,07,13,05,21,12.80
2014,07,13,05,22,12.70
2014,07,13,05,23,12.70
2014,07,13,05,24,12.70
2014,07,13,05,25,12.70
2014,07,13,05,26,12.70
2014,07,13,05,27,12.70
2014,07,13,05,28,12.70
2014,07,13,05,29,12.70
2014,07,13,05,30,12.70
2014,07,13,05,31,12.80
2014,07,13,05,32,12.80
2014,07,13,05,33,12.80
2014,07,13,05,34,12.80
2014,07,13,05,35,12.80
2014,07,13,05,36,12.80
2014,07,13,05,37,12.80
2014,07,13,05,38,12.80
2014,07,13,05,39,12.80
2014,07,13,05,40,12.80
2014,07,13,05,41,12.80
2014,07,13,05,42,12.80
2014,07,13,05,43,12.80
2014,07,13,05,44,12.80
2014,07,13,05,45,12.80
2014,07,13,05,46,12.70
2014,07,13,05,47,12.70
2014,07,13,05,48,12.70
2014,07,13,05,49,12.70
2014,07,13,05,50,12.70
2014,07,13,05,51,12.70
2014,07,13,05,52,12.70
2014,07,13,05,53,12.70
2014,07,13,05,54,12.70
2014,07,13,05,55,12.70
2014,07,13,05,56,12.70
2014,07,13,05,57,12.70
2014,07,13,05,58,12.60
2014,07,13,05,59,12.60
2014,07,13,06,00,12.60
2014,07,13,06,01,12.60
2014,07,13,06,02,12.60
2014,07,13,06,03,12.60
2014,07,13,06,04,12.60
2014,07,13,06,05,12.60
2014,07,13,06,06,12.60
2014,07,13,06,07,12.60
2014,07,13,06,08,12.70
2014,07,13,06,09,12.70
2014,07,13,06,10,12.70
2014,07,13,06,11,12.70
2014,07,13,06,12,12.80
2014,07,13,06,13,12.80
2014,07,13,06,14,12.80
2014,07,13,06,15,12.80
2014,07,13,06,16,12.90
2014,07,13,06,17,12.90
2014,07,13,06,18,12.90
2014,07,13,06,19,12.90
2014,07,13,06,20,12.90
2014,07,13,06,21,12.90
2014,07,13,06,22,12.90
2014,07,13,06,23,12.90
2014,07,13,06,24,13.00
2014,07,13,06,25,13.00
2014,07,13,06,26,13.00
2014,07,13,06,27,13.10
2014,07,13,06,28,13.10
2014,07,13,06,29,13.10
2014,07,13,06,30,13.10
2014,07,13,06,31,13.10
2014,07,13,06,32,13.10
2014,07,13,06,33,13.10
2014,07,13,06,34,13.10
2014,07,13,06,35,13.20
2014,07,13,06,36,13.20
2014,07,13,06,37,13.20
2014,07,13,06,38,13.20
2014,07,13,06,39,13.20
2014,07,13,06,40,13.30
2014,07,13,06,41,13.30
2014,07,13,06,42,13.30
2014,07,13,06,43,13.40
2014,07,13,06,44,13.40
2014,07,13,06,45,13.40
2014,07,13,06,46,13.50
2014,07,13,06,47,13.50
2014,07,13,06,48,13.60
2014,07,13,06,49,13.60
2014,07,13,06,50,13.70
2014,07,13,06,51,13.70
2014,07,13,06,52,13.70
2014,07,13,06,53,13.80
2014,07,13,06,54,13.80
2014,07,13,06,55,13.80
2014,07,13,06,56,13.80
2014,07,13,06,57,13.90
2014,07,13,06,58,13.90
2014,07,13,06,59,13.90
2014,07,13,07,00,14.00
2014,07,13,07,01,14.10
2014,07,13,07,02,14.10
2014,07,13,07,03,14.10
2014,07,13,07,04,14.20
2014,07,13,07,05,14.20
2014,07,13,07,06,14.30
2014,07,13,07,07,14.30
2014,07,13,07,08,14.40
2014,07,13,07,09,14.40
2014,07,13,07,10,14.50
2014,07,13,07,11,14.50
2014,07,13,07,12,14.60
2014,07,13,07,13,14.70
2014,07,13,07,14,14.80
2014,07,13,07,15,14.90
2014,07,13,07,16,15.00
2014,07,13,07,17,15.10
2014,07,13,07,18,15.20
2014,07,13,07,19,15.30
2014,07,13,07,20,15.40
2014,07,13,07,21,15.40
2014,07,13,07,22,15.60
2014,07,13,07,23,15.70
2014,07,13,07,24,15.80
2014,07,13,07,25,15.80
2014,07,13,07,26,15.90
2014,07,13,07,27,16.00
2014,07,13,07,28,16.10
2014,07,13,07,29,16.20
2014,07,13,07,30,16.30
2014,07,13,07,31,16.40
2014,07,13,07,32,16.40
2014,07,13,07,33,16.50
2014,07,13,07,34,16.50
2014,07,13,07,35,16.50
2014,07,13,07,36,16.50
2014,07,13,07,37,16.40
2014,07,13,07,38,16.40
2014,07,13,07,39,16.30
2014,07,13,07,40,16.30
2014,07,13,07,41,16.30
2014,07,13,07,42,16.30
2014,07,13,07,43,16.40
2014,07,13,07,44,16.40
2014,07,13,07,45,16.50
2014,07,13,07,46,16.50
2014,07,13,07,47,16.50
2014,07,13,07,48,16.50
2014,07,13,07,49,16.50
2014,07,13,07,50,16.50
2014,07,13,07,51,16.40
2014,07,13,07,52,16.40
2014,07,13,07,53,16.30
2014,07,13,07,54,16.30
2014,07,13,07,55,16.20
2014,07,13,07,56,16.20
2014,07,13,07,57,16.20
2014,07,13,07,58,16.20
2014,07,13,07,59,16.20
2014,07,13,08,00,16.20
2014,07,13,08,01,16.20
2014,07,13,08,02,16.20
2014,07,13,08,03,16.20
2014,07,13,08,04,16.10
2014,07,13,08,05,16.10
2014,07,13,08,06,16.00
2014,07,13,08,07,16.00
2014,07,13,08,08,16.00
2014,07,13,08,09,16.00
2014,07,13,08,10,16.00
2014,07,13,08,11,16.00
2014,07,13,08,12,16.00
2014,07,13,08,13,16.10
2014,07,13,08,14,16.10
2014,07,13,08,15,16.10
2014,07,13,08,16,16.20
2014,07,13,08,17,16.20
2014,07,13,08,18,16.30
2014,07,13,08,19,16.30
2014,07,13,08,20,16.30
2014,07,13,08,21,16.30
2014,07,13,08,22,16.40
2014,07,13,08,23,16.40
2014,07,13,08,24,16.50
2014,07,13,08,25,16.60
2014,07,13,08,26,16.60
2014,07,13,08,27,16.70
2014,07,13,08,28,16.80
2014,07,13,08,29,16.80
2014,07,13,08,30,16.90
2014,07,13,08,31,16.90
2014,07,13,08,32,16.90
2014,07,13,08,33,16.90
2014,07,13,08,34,16.90
2014,07,13,08,35,16.90
2014,07,13,08,36,17.00
2014,07,13,08,37,17.00
2014,07,13,08,38,17.10
2014,07,13,08,39,17.10
2014,07,13,08,40,17.20
2014,07,13,08,41,17.20
2014,07,13,08,42,17.20
2014,07,13,08,43,17.20
2014,07,13,08,44,17.30
2014,07,13,08,45,17.30
2014,07,13,08,46,17.40
2014,07,13,08,47,17.50
2014,07,13,08,48,17.50
2014,07,13,08,49,17.60
2014,07,13,08,50,17.70
2014,07,13,08,51,17.70
2014,07,13,08,52,17.80
2014,07,13,08,53,17.90
2014,07,13,08,54,18.00
2014,07,13,08,55,18.00
2014,07,13,08,56,18.00
2014,07,13,08,57,18.10
2014,07,13,08,58,18.10
2014,07,13,08,59,18.10
2014,07,13,09,00,18.10
2014,07,13,09,01,18.10
2014,07,13,09,02,18.20
2014,07,13,09,03,18.20
2014,07,13,09,04,18.30
2014,07,13,09,05,18.30
2014,07,13,09,06,18.40
2014,07,13,09,07,18.40
2014,07,13,09,08,18.50
2014,07,13,09,09,18.60
2014,07,13,09,10,18.60
2014,07,13,09,11,18.70
2014,07,13,09,12,18.70
2014,07,13,09,13,18.70
2014,07,13,09,14,18.70
2014,07,13,09,15,18.70
2014,07,13,09,16,18.70
2014,07,13,09,17,18.70
2014,07,13,09,18,18.70
2014,07,13,09,19,18.70
2014,07,13,09,20,18.70
2014,07,13,09,21,18.70
2014,07,13,09,22,18.80
2014,07,13,09,23,18.80
2014,07,13,09,24,18.80
2014,07,13,09,25,18.80
2014,07,13,09,26,18.80
2014,07,13,09,27,18.90
2014,07,13,09,28,18.90
2014,07,13,09,29,19.00
2014,07,13,09,30,19.00
2014,07,13,09,31,19.10
2014,07,13,09,32,19.10
2014,07,13,09,33,19.10
2014,07,13,09,34,19.10
2014,07,13,09,35,19.20
2014,07,13,09,36,19.20
2014,07,13,09,37,19.20
2014,07,13,09,38,19.20
2014,07,13,09,39,19.30
2014,07,13,09,40,19.30
2014,07,13,09,41,19.30
2014,07,13,09,42,19.30
2014,07,13,09,43,19.30
2014,07,13,09,44,19.30
2014,07,13,09,45,19.30
2014,07,13,09,46,19.30
2014,07,13,09,47,19.30
2014,07,13,09,48,19.30
2014,07,13,09,49,19.30
2014,07,13,09,50,19.30
2014,07,13,09,51,19.40
2014,07,13,09,52,19.50
2014,07,13,09,53,19.50
2014,07,13,09,54,19.60
2014,07,13,09,55,19.70
2014,07,13,09,56,19.70
2014,07,13,09,57,19.80
2014,07,13,09,58,19.90
2014,07,13,09,59,20.00
2014,07,13,10,00,20.10
2014,07,13,10,01,20.10
2014,07,13,10,02,20.20
2014,07,13,10,03,20.20
2014,07,13,10,04,20.30
2014,07,13,10,05,20.30
2014,07,13,10,06,20.40
2014,07,13,10,07,20.40
2014,07,13,10,08,20.50
2014,07,13,10,09,20.50
2014,07,13,10,10,20.50
2014,07,13,10,11,20.40
2014,07,13,10,12,20.40
2014,07,13,10,13,20.50
2014,07,13,10,14,20.50
2014,07,13,10,15,20.50
2014,07,13,10,16,20.60
2014,07,13,10,17,20.60
2014,07,13,10,18,20.60
2014,07,13,10,19,20.60
2014,07,13,10,20,20.60
2014,07,13,10,21,20.60
2014,07,13,10,22,20.60
2014,07,13,10,23,20.70
2014,07,13,10,24,20.70
2014,07,13,10,25,20.80
2014,07,13,10,26,20.80
2014,07,13,10,27,20.90
2014,07,13,10,28,21.00
2014,07,13,10,29,21.10
2014,07,13,10,30,21.20
2014,07,13,10,31,21.20
2014,07,13,10,32,21.30
2014,07,13,10,33,21.40
2014,07,13,10,34,21.40
2014,07,13,10,35,21.50
2014,07,13,10,36,21.60
2014,07,13,10,37,21.70
2014,07,13,10,38,21.70
2014,07,13,10,39,21.80
2014,07,13,10,40,21.90
2014,07,13,10,41,22.00
2014,07,13,10,42,22.00
2014,07,13,10,43,22.10
2014,07,13,10,44,22.20
2014,07,13,10,45,22.30
2014,07,13,10,46,22.40
2014,07,13,10,47,22.50
2014,07,13,10,48,22.60
2014,07,13,10,49,22.70
2014,07,13,10,50,22.80
2014,07,13,10,51,22.90
2014,07,13,10,52,23.00
2014,07,13,10,53,23.00
2014,07,13,10,54,23.10
2014,07,13,10,55,23.10
2014,07,13,10,56,23.10
2014,07,13,10,57,23.00
2014,07,13,10,58,23.00
2014,07,13,10,59,22.90
2014,07,13,11,00,22.90
2014,07,13,11,01,22.90
2014,07,13,11,02,22.80
2014,07,13,11,03,22.80
2014,07,13,11,04,22.80
2014,07,13,11,05,22.80
2014,07,13,11,06,22.70
2014,07,13,11,07,22.70
2014,07,13,11,08,22.70
2014,07,13,11,09,22.70
2014,07,13,11,10,22.70
2014,07,13,11,11,22.60
2014,07,13,11,12,22.60
2014,07,13,11,13,22.50
2014,07,13,11,14,22.50
2014,07,13,11,15,22.40
2014,07,13,11,16,22.50
2014,07,13,11,17,22.50
2014,07,13,11,18,22.60
2014,07,13,11,19,22.70
2014,07,13,11,20,22.70
2014,07,13,11,21,22.80
2014,07,13,11,22,22.80
2014,07,13,11,23,22.80
2014,07,13,11,24,22.80
2014,07,13,11,25,22.80
2014,07,13,11,26,22.80
2014,07,13,11,27,22.80
2014,07,13,11,28,22.70
2014,07,13,11,29,22.70
2014,07,13,11,30,22.60
2014,07,13,11,31,22.60
2014,07,13,11,32,22.50
2014,07,13,11,33,22.50
2014,07,13,11,34,22.40
2014,07,13,11,35,22.50
2014,07,13,11,36,22.50
2014,07,13,11,37,22.60
2014,07,13,11,38,22.60
2014,07,13,11,39,22.60
2014,07,13,11,40,22.60
2014,07,13,11,41,22.60
2014,07,13,11,42,22.60
2014,07,13,11,43,22.60
2014,07,13,11,44,22.60
2014,07,13,11,45,22.60
2014,07,13,11,46,22.60
2014,07,13,11,47,22.60
2014,07,13,11,48,22.50
2014,07,13,11,49,22.50
2014,07,13,11,50,22.40
2014,07,13,11,51,22.40
2014,07,13,11,52,22.30
2014,07,13,11,53,22.30
2014,07,13,11,54,22.30
2014,07,13,11,55,22.20
2014,07,13,11,56,22.20
2014,07,13,11,57,22.20
2014,07,13,11,58,22.10
2014,07,13,11,59,22.10
2014,07,13,12,00,22.10
2014,07,13,12,01,22.10
2014,07,13,12,02,22.10
2014,07,13,12,03,22.20
2014,07,13,12,04,22.20
2014,07,13,12,05,22.20
2014,07,13,12,06,22.20
2014,07,13,12,07,22.30
2014,07,13,12,08,22.40
2014,07,13,12,09,22.50
2014,07,13,12,10,22.50
2014,07,13,12,11,22.60
2014,07,13,12,12,22.80
2014,07,13,12,13,22.80
2014,07,13,12,14,22.90
2014,07,13,12,15,23.10
2014,07,13,12,16,23.20
2014,07,13,12,17,23.30
2014,07,13,12,18,23.50
2014,07,13,12,19,23.60
2014,07,13,12,20,23.70
2014,07,13,12,21,23.80
2014,07,13,12,22,23.80
2014,07,13,12,23,23.80
2014,07,13,12,24,23.80
2014,07,13,12,25,23.90
2014,07,13,12,26,23.90
2014,07,13,12,27,23.90
2014,07,13,12,28,23.90
2014,07,13,12,29,23.90
2014,07,13,12,30,24.00
2014,07,13,12,31,24.10
2014,07,13,12,32,24.20
2014,07,13,12,33,24.30
2014,07,13,12,34,24.50
2014,07,13,12,35,24.60
2014,07,13,12,36,24.70
2014,07,13,12,37,24.90
2014,07,13,12,38,25.00
2014,07,13,12,39,25.20
2014,07,13,12,40,25.40
2014,07,13,12,41,25.60
2014,07,13,12,42,25.70
2014,07,13,12,43,25.90
2014,07,13,12,44,26.00
2014,07,13,12,45,26.00
2014,07,13,12,46,26.00
2014,07,13,12,47,26.10
2014,07,13,12,48,26.10
2014,07,13,12,49,26.20
2014,07,13,12,50,26.30
2014,07,13,12,51,26.40
2014,07,13,12,52,26.40
2014,07,13,12,53,26.50
2014,07,13,12,54,26.50
2014,07,13,12,55,26.60
2014,07,13,12,56,26.60
2014,07,13,12,57,26.60
2014,07,13,12,58,26.70
2014,07,13,12,59,26.70
2014,07,13,13,00,26.70
2014,07,13,13,01,26.80
2014,07,13,13,02,26.80
2014,07,13,13,03,26.80
2014,07,13,13,04,26.70
2014,07,13,13,05,26.60
2014,07,13,13,06,26.50
2014,07,13,13,07,26.40
2014,07,13,13,08,26.30
2014,07,13,13,09,26.20
2014,07,13,13,10,26.10
2014,07,13,13,11,26.00
2014,07,13,13,12,25.90
2014,07,13,13,13,25.70
2014,07,13,13,14,25.60
2014,07,13,13,15,25.50
2014,07,13,13,16,25.60
2014,07,13,13,17,25.50
2014,07,13,13,18,25.50
2014,07,13,13,19,25.40
2014,07,13,13,20,25.40
2014,07,13,13,21,25.30
2014,07,13,13,22,25.40
2014,07,13,13,23,25.40
2014,07,13,13,24,25.50
2014,07,13,13,25,25.50
2014,07,13,13,26,25.60
2014,07,13,13,27,25.70
2014,07,13,13,28,25.70
2014,07,13,13,29,25.80
2014,07,13,13,30,25.80
2014,07,13,13,31,25.80
2014,07,13,13,32,25.80
2014,07,13,13,33,25.80
2014,07,13,13,34,25.80
2014,07,13,13,35,25.70
2014,07,13,13,36,25.70
2014,07,13,13,37,25.70
2014,07,13,13,38,25.70
2014,07,13,13,39,25.70
2014,07,13,13,40,25.70
2014,07,13,13,41,25.70
2014,07,13,13,42,25.70
2014,07,13,13,43,25.70
2014,07,13,13,44,25.70
2014,07,13,13,45,25.80
2014,07,13,13,46,25.80
2014,07,13,13,47,25.90
2014,07,13,13,48,25.90
2014,07,13,13,49,26.00
2014,07,13,13,50,26.10
2014,07,13,13,51,26.10
2014,07,13,13,52,26.30
2014,07,13,13,53,26.40
2014,07,13,13,54,26.40
2014,07,13,13,55,26.40
2014,07,13,13,56,26.30
2014,07,13,13,57,26.30
2014,07,13,13,58,26.10
2014,07,13,13,59,26.00
2014,07,13,14,00,26.00
2014,07,13,14,01,26.00
2014,07,13,14,02,25.90
2014,07,13,14,03,25.90
2014,07,13,14,04,25.80
2014,07,13,14,05,25.70
2014,07,13,14,06,25.60
2014,07,13,14,07,25.60
2014,07,13,14,08,25.60
2014,07,13,14,09,25.60
2014,07,13,14,10,25.50
2014,07,13,14,11,25.50
2014,07,13,14,12,25.40
2014,07,13,14,13,25.40
2014,07,13,14,14,25.30
2014,07,13,14,15,25.30
2014,07,13,14,16,25.40
2014,07,13,14,17,25.50
2014,07,13,14,18,25.50
2014,07,13,14,19,25.50
2014,07,13,14,20,25.40
2014,07,13,14,21,25.40
2014,07,13,14,22,25.40
2014,07,13,14,23,25.50
2014,07,13,14,24,25.50
2014,07,13,14,25,25.60
2014,07,13,14,26,25.70
2014,07,13,14,27,25.80
2014,07,13,14,28,25.90
2014,07,13,14,29,25.90
2014,07,13,14,30,26.00
2014,07,13,14,31,26.10
2014,07,13,14,32,26.20
2014,07,13,14,33,26.20
2014,07,13,14,34,26.30
2014,07,13,14,35,26.40
2014,07,13,14,36,26.50
2014,07,13,14,37,26.60
2014,07,13,14,38,26.70
2014,07,13,14,39,26.80
2014,07,13,14,40,26.80
2014,07,13,14,41,26.80
2014,07,13,14,42,26.90
2014,07,13,14,43,26.90
2014,07,13,14,44,26.90
2014,07,13,14,45,26.90
2014,07,13,14,46,26.90
2014,07,13,14,47,26.90
2014,07,13,14,48,26.90
2014,07,13,14,49,26.90
2014,07,13,14,50,26.80
2014,07,13,14,51,26.80
2014,07,13,14,52,26.70
2014,07,13,14,53,26.60
2014,07,13,14,54,26.50
2014,07,13,14,55,26.40
2014,07,13,14,56,26.30
2014,07,13,14,57,26.20
2014,07,13,14,58,26.20
2014,07,13,14,59,26.10
2014,07,13,15,00,26.10
2014,07,13,15,01,26.10
2014,07,13,15,02,26.10
2014,07,13,15,03,26.10
2014,07,13,15,04,26.10
2014,07,13,15,05,26.20
2014,07,13,15,06,26.20
2014,07,13,15,07,26.20
2014,07,13,15,08,26.20
2014,07,13,15,09,26.20
2014,07,13,15,10,26.20
2014,07,13,15,11,26.20
2014,07,13,15,12,26.30
2014,07,13,15,13,26.30
2014,07,13,15,14,26.20
2014,07,13,15,15,26.20
2014,07,13,15,16,26.20
2014,07,13,15,17,26.20
2014,07,13,15,18,26.20
2014,07,13,15,19,26.20
2014,07,13,15,20,26.20
2014,07,13,15,21,26.20
2014,07,13,15,22,26.20
2014,07,13,15,23,26.20
2014,07,13,15,24,26.20
2014,07,13,15,25,26.20
2014,07,13,15,26,26.10
2014,07,13,15,27,26.20
2014,07,13,15,28,26.10
2014,07,13,15,29,26.10
2014,07,13,15,30,26.10
2014,07,13,15,31,26.10
2014,07,13,15,32,26.10
2014,07,13,15,33,26.10
2014,07,13,15,34,26.10
2014,07,13,15,35,26.10
2014,07,13,15,36,26.20
2014,07,13,15,37,26.20
2014,07,13,15,38,26.30
2014,07,13,15,39,26.30
2014,07,13,15,40,26.40
2014,07,13,15,41,26.40
2014,07,13,15,42,26.50
2014,07,13,15,43,26.60
2014,07,13,15,44,26.60
2014,07,13,15,45,26.70
2014,07,13,15,46,26.70
2014,07,13,15,47,26.70
2014,07,13,15,48,26.70
2014,07,13,15,49,26.80
2014,07,13,15,50,26.80
2014,07,13,15,51,26.80
2014,07,13,15,52,26.90
2014,07,13,15,53,26.90
2014,07,13,15,54,27.00
2014,07,13,15,55,27.00
2014,07,13,15,56,27.10
2014,07,13,15,57,27.20
2014,07,13,15,58,27.20
2014,07,13,15,59,27.20
2014,07,13,16,00,27.20
2014,07,13,16,01,27.20
2014,07,13,16,02,27.20
2014,07,13,16,03,27.10
2014,07,13,16,04,27.10
2014,07,13,16,05,27.10
2014,07,13,16,06,27.10
2014,07,13,16,07,27.00
2014,07,13,16,08,27.00
2014,07,13,16,09,27.00
2014,07,13,16,10,27.10
2014,07,13,16,11,27.10
2014,07,13,16,12,27.10
2014,07,13,16,13,27.10
2014,07,13,16,14,27.10
2014,07,13,16,15,27.00
2014,07,13,16,16,26.90
2014,07,13,16,17,26.90
2014,07,13,16,18,26.80
2014,07,13,16,19,26.80
2014,07,13,16,20,26.80
2014,07,13,16,21,26.70
2014,07,13,16,22,26.60
2014,07,13,16,23,26.50
2014,07,13,16,24,26.40
2014,07,13,16,25,26.40
2014,07,13,16,26,26.30
2014,07,13,16,27,26.30
2014,07,13,16,28,26.30
2014,07,13,16,29,26.40
2014,07,13,16,30,26.40
2014,07,13,16,31,26.50
2014,07,13,16,32,26.60
2014,07,13,16,33,26.70
2014,07,13,16,34,26.80
2014,07,13,16,35,26.80
2014,07,13,16,36,26.90
2014,07,13,16,37,26.90
2014,07,13,16,38,26.90
2014,07,13,16,39,27.00
2014,07,13,16,40,27.00
2014,07,13,16,41,27.00
2014,07,13,16,42,27.00
2014,07,13,16,43,27.00
2014,07,13,16,44,27.00
2014,07,13,16,45,27.10
2014,07,13,16,46,27.10
2014,07,13,16,47,27.10
2014,07,13,16,48,27.10
2014,07,13,16,49,27.10
2014,07,13,16,50,27.10
2014,07,13,16,51,27.10
2014,07,13,16,52,27.00
2014,07,13,16,53,26.90
2014,07,13,16,54,26.80
2014,07,13,16,55,26.80
2014,07,13,16,56,26.70
2014,07,13,16,57,26.70
2014,07,13,16,58,26.60
2014,07,13,16,59,26.50
2014,07,13,17,00,26.40
2014,07,13,17,01,26.20
2014,07,13,17,02,26.10
2014,07,13,17,03,25.90
2014,07,13,17,04,25.80
2014,07,13,17,05,25.70
2014,07,13,17,06,25.60
2014,07,13,17,07,25.50
2014,07,13,17,08,25.40
2014,07,13,17,09,25.30
2014,07,13,17,10,25.20
2014,07,13,17,11,25.10
2014,07,13,17,12,25.00
2014,07,13,17,13,24.90
2014,07,13,17,14,24.80
2014,07,13,17,15,24.80
2014,07,13,17,16,24.80
2014,07,13,17,17,24.80
2014,07,13,17,18,24.80
2014,07,13,17,19,24.90